| time (UTC) | temp C | wind direction | speed KPH | gust KPH | rain 1hr cm | rain 24hr cm | rain mn cm | humidity % | barometer mb |
| 20260903043640 | 25 | 294 | 0.0 | 0.0 | 0.00 | 0.00 | 0.00 | 75 | 1014.1 |
| 20260903043413 | 25 | 294 | 0.0 | 0.0 | 0.00 | 0.00 | 0.00 | 75 | 1014.0 |
| 20260903043125 | 26 | 294 | 0.0 | 0.0 | 0.00 | 0.00 | 0.00 | 75 | 1014.0 |
| 20260903042149 | 26 | 294 | 0.0 | 3.2 | 0.00 | 0.00 | 0.00 | 74 | 1013.8 |
| 20260903041638 | 26 | 294 | 0.0 | 3.2 | 0.00 | 0.00 | 0.00 | 74 | 1014.0 |
| 20260903041139 | 26 | 297 | 3.2 | 3.2 | 0.00 | 0.00 | 0.00 | 74 | 1013.8 |
| 20260903040638 | 26 | 255 | 0.0 | 1.6 | 0.00 | 0.00 | 0.00 | 74 | 1014.2 |
| 20260903040138 | 26 | 322 | 0.0 | 1.6 | 0.00 | 0.00 | 0.00 | 74 | 1013.6 |
| 20260903035636 | 26 | 297 | 0.0 | 1.6 | 0.00 | 0.00 | 0.00 | 74 | 1014.1 |
| 20260903035407 | 26 | 157 | 0.0 | 1.6 | 0.00 | 0.00 | 0.00 | 73 | 1013.7 |
| 20260903034632 | 26 | 322 | 0.0 | 0.0 | 0.00 | 0.00 | 0.00 | 73 | 1013.7 |
| 20260903034137 | 26 | 224 | 0.0 | 0.0 | 0.00 | 0.00 | 0.00 | 73 | 1013.4 |
| 20260903033636 | 26 | 322 | 0.0 | 1.6 | 0.00 | 0.00 | 0.00 | 73 | 1013.2 |
| 20260903033137 | 26 | 293 | 0.0 | 1.6 | 0.00 | 0.00 | 0.00 | 73 | 1013.7 |
| 20260903032635 | 26 | 326 | 0.0 | 1.6 | 0.00 | 0.00 | 0.00 | 72 | 1013.5 |
| 20260903032405 | 26 | 37 | 0.0 | 3.2 | 0.00 | 0.00 | 0.00 | 72 | 1013.8 |
| 20260903031634 | 26 | 212 | 0.0 | 3.2 | 0.00 | 0.00 | 0.00 | 72 | 1013.9 |
| 20260903031136 | 26 | 325 | 0.0 | 1.6 | 0.00 | 0.00 | 0.00 | 72 | 1013.1 |
| 20260903030633 | 26 | 343 | 0.0 | 0.0 | 0.00 | 0.00 | 0.00 | 71 | 1013.6 |
| 20260903030134 | 26 | 315 | 0.0 | 1.6 | 0.00 | 0.00 | 0.00 | 71 | 1013.4 |
| 20260903025857 | 26 | 306 | 0.0 | 1.6 | 0.00 | 0.00 | 0.00 | 71 | 1013.4 |
| 20260903025143 | 26 | 309 | 0.0 | 1.6 | 0.00 | 0.00 | 0.00 | 71 | 1013.2 |
| 20260903024634 | 26 | 269 | 0.0 | 1.6 | 0.00 | 0.00 | 0.00 | 70 | 1013.1 |
| 20260903024133 | 27 | 283 | 0.0 | 3.2 | 0.00 | 0.00 | 0.00 | 70 | 1013.2 |
| 20260903023848 | 27 | 290 | 0.0 | 3.2 | 0.00 | 0.00 | 0.00 | 70 | 1013.6 |
| 20260903023132 | 27 | 299 | 3.2 | 3.2 | 0.00 | 0.00 | 0.00 | 70 | 1013.6 |
| 20260903022859 | 27 | 306 | 0.0 | 1.6 | 0.00 | 0.00 | 0.00 | 70 | 1013.7 |
| 20260903022131 | 27 | 322 | 0.0 | 1.6 | 0.00 | 0.00 | 0.00 | 70 | 1013.8 |
| 20260903021630 | 27 | 75 | 0.0 | 1.6 | 0.00 | 0.00 | 0.00 | 70 | 1014.1 |
| 20260903021133 | 27 | 269 | 0.0 | 1.6 | 0.00 | 0.00 | 0.00 | 69 | 1013.9 |
| 20260903020629 | 27 | 284 | 0.0 | 1.6 | 0.00 | 0.00 | 0.00 | 70 | 1013.8 |
| 20260903020130 | 27 | 309 | 0.0 | 1.6 | 0.00 | 0.00 | 0.00 | 69 | 1014.3 |
| 20260903015629 | 27 | 255 | 0.0 | 0.0 | 0.00 | 0.00 | 0.00 | 69 | 1014.0 |
| 20260903015130 | 27 | 315 | 0.0 | 0.0 | 0.00 | 0.00 | 0.00 | 69 | 1013.8 |
| 20260903014628 | 27 | 269 | 0.0 | 1.6 | 0.00 | 0.00 | 0.00 | 69 | 1014.0 |
| 20260903014139 | 27 | 315 | 0.0 | 1.6 | 0.00 | 0.00 | 0.00 | 69 | 1013.9 |
| 20260903013627 | 27 | 255 | 0.0 | 3.2 | 0.00 | 0.00 | 0.00 | 68 | 1014.0 |
| 20260903013127 | 27 | 154 | 0.0 | 3.2 | 0.00 | 0.00 | 0.00 | 68 | 1013.9 |
| 20260903012626 | 28 | 224 | 0.0 | 1.6 | 0.00 | 0.00 | 0.00 | 68 | 1013.6 |
| 20260903012128 | 28 | 326 | 0.0 | 1.6 | 0.00 | 0.00 | 0.00 | 67 | 1013.8 |
| 20260903011625 | 28 | 304 | 0.0 | 1.6 | 0.00 | 0.00 | 0.00 | 67 | 1013.9 |
| 20260903011352 | 28 | 217 | 0.0 | 1.6 | 0.00 | 0.00 | 0.00 | 67 | 1013.6 |
| 20260903010847 | 28 | 255 | 0.0 | 3.2 | 0.00 | 0.00 | 0.00 | 67 | 1013.4 |
| 20260903010126 | 28 | 269 | 0.0 | 3.2 | 0.00 | 0.00 | 0.00 | 66 | 1013.5 |
| 20260903005620 | 28 | 230 | 0.0 | 3.2 | 0.00 | 0.00 | 0.00 | 66 | 1013.5 |
| 20260903005124 | 28 | 311 | 0.0 | 3.2 | 0.00 | 0.00 | 0.00 | 66 | 1013.4 |
| 20260903004622 | 28 | 297 | 0.0 | 3.2 | 0.00 | 0.00 | 0.00 | 66 | 1013.2 |
| 20260903004353 | 28 | 269 | 0.0 | 1.6 | 0.00 | 0.00 | 0.00 | 65 | 1013.2 |
| 20260903003618 | 29 | 230 | 0.0 | 1.6 | 0.00 | 0.00 | 0.00 | 65 | 1013.0 |
| 20260903003127 | 29 | 315 | 0.0 | 1.6 | 0.00 | 0.00 | 0.00 | 65 | 1012.9 |
| 20260903002617 | 29 | 343 | 0.0 | 3.2 | 0.00 | 0.00 | 0.00 | 64 | 1013.2 |
| 20260903002337 | 29 | 309 | 0.0 | 3.2 | 0.00 | 0.00 | 0.00 | 64 | 1013.1 |
| 20260903001617 | 29 | 266 | 1.6 | 3.2 | 0.00 | 0.00 | 0.00 | 63 | 1013.4 |
| 20260903001123 | 30 | 299 | 0.0 | 3.2 | 0.00 | 0.00 | 0.00 | 63 | 1013.2 |
| 20260903000619 | 30 | 290 | 0.0 | 3.2 | 0.00 | 0.00 | 0.00 | 62 | 1013.1 |
| 20260903000119 | 30 | 269 | 0.0 | 3.2 | 0.00 | 0.00 | 0.00 | 61 | 1013.5 |
| 20260902235620 | 30 | 262 | 0.0 | 3.2 | 0.00 | 0.00 | 0.00 | 61 | 1013.4 |
| 20260902235120 | 30 | 242 | 0.0 | 3.2 | 0.00 | 0.00 | 0.00 | 60 | 1013.6 |
| 20260902234615 | 30 | 216 | 0.0 | 3.2 | 0.00 | 0.00 | 0.00 | 60 | 1013.2 |
| 20260902234118 | 30 | 193 | 0.0 | 3.2 | 0.00 | 0.00 | 0.00 | 59 | 1013.5 |
| 20260902233614 | 31 | 278 | 3.2 | 3.2 | 0.00 | 0.00 | 0.00 | 58 | 1013.4 |
| 20260902233114 | 31 | 315 | 0.0 | 3.2 | 0.00 | 0.00 | 0.00 | 58 | 1013.4 |
| 20260902232620 | 31 | 315 | 0.0 | 3.2 | 0.00 | 0.00 | 0.00 | 57 | 1013.4 |
| 20260902232112 | 31 | 269 | 0.0 | 3.2 | 0.00 | 0.00 | 0.00 | 57 | 1013.4 |
| 20260902231607 | 31 | 202 | 0.0 | 3.2 | 0.00 | 0.00 | 0.00 | 56 | 1013.6 |
| 20260902231110 | 31 | 301 | 0.0 | 4.8 | 0.00 | 0.00 | 0.00 | 56 | 1013.5 |
| 20260902231052 | 31 | 297 | 0.0 | 4.8 | 0.00 | 0.00 | 0.00 | 55 | 1013.6 |
| 20260902230110 | 31 | 304 | 0.0 | 3.2 | 0.00 | 0.00 | 0.00 | 55 | 1013.5 |
| 20260902225605 | 31 | 283 | 0.0 | 4.8 | 0.00 | 0.00 | 0.00 | 54 | 1013.4 |
| 20260902225330 | 32 | 58 | 0.0 | 4.8 | 0.00 | 0.00 | 0.00 | 54 | 1013.6 |
| 20260902224612 | 32 | 325 | 0.0 | 6.4 | 0.00 | 0.00 | 0.00 | 53 | 1013.2 |
| 20260902224104 | 32 | 227 | 3.2 | 6.4 | 0.00 | 0.00 | 0.00 | 53 | 1013.4 |
| 20260902223602 | 32 | 135 | 0.0 | 4.8 | 0.00 | 0.00 | 0.00 | 52 | 1013.2 |
| 20260902223103 | 32 | 276 | 3.2 | 4.8 | 0.00 | 0.00 | 0.00 | 52 | 1013.2 |
| 20260902222559 | 32 | 219 | 1.6 | 4.8 | 0.00 | 0.00 | 0.00 | 52 | 1013.4 |
| 20260902222323 | 32 | 269 | 0.0 | 6.4 | 0.00 | 0.00 | 0.00 | 50 | 1013.6 |
| 20260902221830 | 32 | 62 | 0.0 | 6.4 | 0.00 | 0.00 | 0.00 | 49 | 1013.1 |
| 20260902221105 | 32 | 274 | 1.6 | 4.8 | 0.00 | 0.00 | 0.00 | 48 | 1013.4 |
| 20260902220557 | 32 | 237 | 0.0 | 4.8 | 0.00 | 0.00 | 0.00 | 48 | 1013.4 |
| 20260902220111 | 32 | 315 | 0.0 | 4.8 | 0.00 | 0.00 | 0.00 | 48 | 1013.4 |
| 20260902215603 | 33 | 306 | 1.6 | 4.8 | 0.00 | 0.00 | 0.00 | 47 | 1013.2 |
| 20260902215555 | 33 | 257 | 1.6 | 4.8 | 0.00 | 0.00 | 0.00 | 47 | 1013.5 |
| 20260902214549 | 33 | 171 | 0.0 | 4.8 | 0.00 | 0.00 | 0.00 | 46 | 1013.7 |
| 20260902214058 | 33 | 6 | 0.0 | 4.8 | 0.00 | 0.00 | 0.00 | 44 | 1013.7 |
| 20260902213553 | 33 | 229 | 0.0 | 6.4 | 0.00 | 0.00 | 0.00 | 41 | 1013.7 |
| 20260902213053 | 33 | 276 | 1.6 | 6.4 | 0.00 | 0.00 | 0.00 | 41 | 1013.4 |
| 20260902212551 | 33 | 314 | 6.4 | 6.4 | 0.00 | 0.00 | 0.00 | 40 | 1013.4 |
| 20260902212318 | 33 | 290 | 0.0 | 4.8 | 0.00 | 0.00 | 0.00 | 41 | 1013.5 |
| 20260902211549 | 33 | 255 | 0.0 | 4.8 | 0.00 | 0.00 | 0.00 | 42 | 1013.7 |
| 20260902211055 | 33 | 292 | 3.2 | 4.8 | 0.00 | 0.00 | 0.00 | 39 | 1013.8 |
| 20260902211036 | 33 | 297 | 3.2 | 3.2 | 0.00 | 0.00 | 0.00 | 40 | 1013.7 |
| 20260902210049 | 33 | 266 | 0.0 | 3.2 | 0.00 | 0.00 | 0.00 | 41 | 1013.6 |
| 20260902205546 | 33 | 330 | 1.6 | 3.2 | 0.00 | 0.00 | 0.00 | 41 | 1014.0 |
| 20260902205048 | 33 | 269 | 3.2 | 3.2 | 0.00 | 0.00 | 0.00 | 39 | 1013.8 |
| 20260902204538 | 33 | 341 | 0.0 | 3.2 | 0.00 | 0.00 | 0.00 | 41 | 1014.0 |
| 20260902204032 | 33 | 260 | 3.2 | 6.4 | 0.00 | 0.00 | 0.00 | 40 | 1014.0 |
| 20260902203531 | 33 | 249 | 0.0 | 6.4 | 0.00 | 0.00 | 0.00 | 42 | 1014.2 |
| 20260902203029 | 33 | 297 | 0.0 | 4.8 | 0.00 | 0.00 | 0.00 | 38 | 1014.0 |
| 20260902203019 | 33 | 220 | 0.0 | 4.8 | 0.00 | 0.00 | 0.00 | 39 | 1014.2 |
| 20260902202034 | 33 | 249 | 0.0 | 4.8 | 0.00 | 0.00 | 0.00 | 39 | 1014.0 |
| 20260902202012 | 33 | 296 | 1.6 | 6.4 | 0.00 | 0.00 | 0.00 | 40 | 1014.2 |
| 20260902201018 | 34 | 259 | 1.6 | 6.4 | 0.00 | 0.00 | 0.00 | 39 | 1014.3 |
| 20260902200512 | 34 | 269 | 0.0 | 4.8 | 0.00 | 0.00 | 0.00 | 39 | 1014.4 |
| 20260902200011 | 34 | 313 | 3.2 | 6.4 | 0.00 | 0.00 | 0.00 | 38 | 1014.5 |
| 20260902195505 | 34 | 314 | 3.2 | 6.4 | 0.00 | 0.00 | 0.00 | 39 | 1014.2 |
| 20260902195013 | 35 | 248 | 3.2 | 6.4 | 0.00 | 0.00 | 0.00 | 36 | 1014.6 |
| 20260902194513 | 34 | 172 | 3.2 | 4.8 | 0.00 | 0.00 | 0.00 | 38 | 1014.5 |
| 20260902194020 | 34 | 283 | 1.6 | 0.0 | 0.00 | 0.00 | 0.00 | 41 | 1014.6 |
| 20260902193317 | 33 | 335 | 1.6 | 8.0 | 0.00 | 0.00 | 0.00 | 44 | 1014.4 |
| 20260902193046 | 33 | 127 | 0.0 | 3.2 | 0.00 | 0.00 | 0.00 | 45 | 1014.5 |
| 20260902192550 | 32 | 186 | 0.0 | 3.2 | 0.00 | 0.00 | 0.00 | 46 | 1014.7 |
| 20260902191818 | 32 | 135 | 0.0 | 3.2 | 0.00 | 0.00 | 0.00 | 48 | 1014.6 |
| 20260902191319 | 32 | 255 | 0.0 | 3.2 | 0.00 | 0.00 | 0.00 | 48 | 1014.9 |
| 20260902190818 | 32 | 316 | 1.6 | 3.2 | 0.00 | 0.00 | 0.00 | 47 | 1014.8 |
| 20260902190319 | 32 | 268 | 3.2 | 3.2 | 0.00 | 0.00 | 0.00 | 46 | 1014.9 |
| 20260902185816 | 32 | 322 | 0.0 | 3.2 | 0.00 | 0.00 | 0.00 | 47 | 1015.0 |
| 20260902185321 | 33 | 269 | 0.0 | 4.8 | 0.00 | 0.00 | 0.00 | 46 | 1014.6 |
| 20260902184819 | 33 | 275 | 3.2 | 4.8 | 0.00 | 0.00 | 0.00 | 44 | 1014.9 |
| 20260902184317 | 33 | 321 | 1.6 | 4.8 | 0.00 | 0.00 | 0.00 | 44 | 1014.8 |
| 20260902184023 | 34 | 249 | 3.2 | 6.4 | 0.00 | 0.00 | 0.00 | 43 | 1015.0 |
| 20260902183253 | 34 | 275 | 3.2 | 6.4 | 0.00 | 0.00 | 0.00 | 44 | 1015.1 |
| 20260902182742 | 34 | 323 | 0.0 | 4.8 | 0.00 | 0.00 | 0.00 | 45 | 1015.1 |
| 20260902182245 | 33 | 275 | 1.6 | 4.8 | 0.00 | 0.00 | 0.00 | 44 | 1015.1 |
| 20260902181742 | 33 | 306 | 3.2 | 4.8 | 0.00 | 0.00 | 0.00 | 42 | 1015.0 |
| 20260902181243 | 33 | 25 | 4.8 | 4.8 | 0.00 | 0.00 | 0.00 | 45 | 1015.4 |
| 20260902181003 | 33 | 235 | 0.0 | 4.8 | 0.00 | 0.00 | 0.00 | 46 | 1015.6 |
| 20260902180243 | 33 | 205 | 0.0 | 4.8 | 0.00 | 0.00 | 0.00 | 43 | 1015.3 |
| 20260902175702 | 33 | 246 | 1.6 | 8.0 | 0.00 | 0.00 | 0.00 | 44 | 1015.7 |
| 20260902174923 | 33 | 144 | 3.2 | 6.4 | 0.00 | 0.00 | 0.00 | 44 | 1015.5 |
| 20260902174406 | 33 | 224 | 0.0 | 6.4 | 0.00 | 0.00 | 0.00 | 46 | 1015.4 |
| 20260902174126 | 33 | 237 | 3.2 | 4.8 | 0.00 | 0.00 | 0.00 | 47 | 1015.5 |
| 20260902173404 | 33 | 354 | 0.0 | 4.8 | 0.00 | 0.00 | 0.00 | 46 | 1015.6 |
| 20260902173138 | 33 | 327 | 1.6 | 4.8 | 0.00 | 0.00 | 0.00 | 46 | 1015.7 |
| 20260902172628 | 33 | 223 | 0.0 | 3.2 | 0.00 | 0.00 | 0.00 | 50 | 1015.6 |
| 20260902171900 | 33 | 269 | 0.0 | 3.2 | 0.00 | 0.00 | 0.00 | 51 | 1015.7 |
| 20260902171210 | 33 | 278 | 3.2 | 4.8 | 0.00 | 0.00 | 0.00 | 50 | 1015.6 |
| 20260902170717 | 33 | 98 | 1.6 | 6.4 | 0.00 | 0.00 | 0.00 | 50 | 1015.7 |
| 20260902170420 | 33 | 5 | 1.6 | 6.4 | 0.00 | 0.00 | 0.00 | 48 | 1015.8 |
| 20260902165704 | 33 | 245 | 0.0 | 6.4 | 0.00 | 0.00 | 0.00 | 49 | 1015.7 |
| 20260902165157 | 33 | 275 | 3.2 | 4.8 | 0.00 | 0.00 | 0.00 | 48 | 1015.6 |
| 20260902164658 | 33 | 315 | 3.2 | 3.2 | 0.00 | 0.00 | 0.00 | 49 | 1016.0 |
| 20260902164154 | 33 | 306 | 1.6 | 4.8 | 0.00 | 0.00 | 0.00 | 48 | 1015.7 |
| 20260902163708 | 33 | 228 | 0.0 | 4.8 | 0.00 | 0.00 | 0.00 | 51 | 1015.9 |
| 20260902163134 | 33 | 347 | 0.0 | 4.8 | 0.00 | 0.00 | 0.00 | 49 | 1016.1 |
| 20260902162646 | 33 | 272 | 3.2 | 3.2 | 0.00 | 0.00 | 0.00 | 48 | 1016.1 |
| 20260902162141 | 33 | 266 | 1.6 | 3.2 | 0.00 | 0.00 | 0.00 | 49 | 1016.1 |
| 20260902161637 | 33 | 258 | 1.6 | 3.2 | 0.00 | 0.00 | 0.00 | 51 | 1016.2 |
| 20260902161126 | 32 | 237 | 0.0 | 4.8 | 0.00 | 0.00 | 0.00 | 49 | 1016.0 |
| 20260902160624 | 32 | 321 | 0.0 | 4.8 | 0.00 | 0.00 | 0.00 | 52 | 1016.3 |
| 20260902160110 | 32 | 303 | 1.6 | 4.8 | 0.00 | 0.00 | 0.00 | 53 | 1015.9 |
| 20260902155845 | 31 | 259 | 1.6 | 4.8 | 0.00 | 0.00 | 0.00 | 53 | 1016.1 |
| 20260902155120 | 31 | 194 | 0.0 | 3.2 | 0.00 | 0.00 | 0.00 | 57 | 1016.2 |
| 20260902154612 | 31 | 335 | 0.0 | 3.2 | 0.00 | 0.00 | 0.00 | 55 | 1016.3 |
| 20260902154111 | 31 | 288 | 1.6 | 3.2 | 0.00 | 0.00 | 0.00 | 57 | 1016.4 |
| 20260902153610 | 30 | 275 | 1.6 | 0.0 | 0.00 | 0.00 | 0.00 | 59 | 1016.2 |
| 20260902153025 | 30 | 296 | 3.2 | 3.2 | 0.00 | 0.00 | 0.00 | 59 | 1016.3 |
| 20260902152524 | 30 | 333 | 0.0 | 3.2 | 0.00 | 0.00 | 0.00 | 60 | 1016.1 |
| 20260902152023 | 29 | 272 | 3.2 | 3.2 | 0.00 | 0.00 | 0.00 | 61 | 1016.1 |
| 20260902151518 | 29 | 74 | 1.6 | 4.8 | 0.00 | 0.00 | 0.00 | 64 | 1016.2 |
| 20260902151255 | 28 | 177 | 0.0 | 4.8 | 0.00 | 0.00 | 0.00 | 62 | 1016.3 |
| 20260902150731 | 28 | 273 | 0.0 | 4.8 | 0.00 | 0.00 | 0.00 | 63 | 1016.1 |
| 20260902150016 | 28 | 332 | 0.0 | 3.2 | 0.00 | 0.00 | 0.00 | 67 | 1016.2 |
| 20260902145505 | 28 | 291 | 0.0 | 3.2 | 0.00 | 0.00 | 0.00 | 66 | 1016.0 |
| 20260902144958 | 28 | 306 | 0.0 | 1.6 | 0.00 | 0.00 | 0.00 | 68 | 1016.0 |
| 20260902144455 | 27 | 224 | 0.0 | 4.8 | 0.00 | 0.00 | 0.00 | 69 | 1016.0 |
| 20260902143953 | 27 | 210 | 0.0 | 4.8 | 0.00 | 0.00 | 0.00 | 69 | 1015.9 |
| 20260902143452 | 27 | 214 | 3.2 | 4.8 | 0.00 | 0.00 | 0.00 | 69 | 1015.8 |
| 20260902142945 | 27 | 297 | 0.0 | 3.2 | 0.00 | 0.00 | 0.00 | 71 | 1016.1 |
| 20260902142444 | 26 | 309 | 0.0 | 3.2 | 0.00 | 0.00 | 0.00 | 71 | 1015.9 |
| 20260902141935 | 26 | 315 | 0.0 | 3.2 | 0.00 | 0.00 | 0.00 | 73 | 1016.0 |
| 20260902141434 | 26 | 320 | 1.6 | 3.2 | 0.00 | 0.00 | 0.00 | 74 | 1016.1 |
| 20260902140938 | 26 | 99 | 0.0 | 0.0 | 0.00 | 0.00 | 0.00 | 74 | 1016.0 |
| 20260902140431 | 26 | 297 | 0.0 | 3.2 | 0.00 | 0.00 | 0.00 | 75 | 1015.7 |
| 20260902135931 | 25 | 297 | 0.0 | 3.2 | 0.00 | 0.00 | 0.00 | 75 | 1015.7 |
| 20260902135644 | 25 | 13 | 0.0 | 3.2 | 0.00 | 0.00 | 0.00 | 75 | 1016.0 |
| 20260902135022 | 25 | 330 | 3.2 | 3.2 | 0.00 | 0.00 | 0.00 | 77 | 1015.7 |
| 20260902134210 | 25 | 325 | 0.0 | 3.2 | 0.00 | 0.00 | 0.00 | 79 | 1015.7 |
| 20260902133418 | 24 | 224 | 0.0 | 3.2 | 0.00 | 0.00 | 0.00 | 83 | 1015.9 |
| 20260902132912 | 24 | 129 | 0.0 | 3.2 | 0.00 | 0.00 | 0.00 | 84 | 1015.9 |
| 20260902132656 | 23 | 137 | 1.6 | 3.2 | 0.00 | 0.00 | 0.00 | 85 | 1016.0 |
| 20260902131906 | 23 | 337 | 0.0 | 3.2 | 0.00 | 0.00 | 0.00 | 85 | 1016.0 |
| 20260902131403 | 23 | 293 | 0.0 | 1.6 | 0.00 | 0.00 | 0.00 | 86 | 1015.9 |
| 20260902125838 | 23 | 110 | 0.0 | 3.2 | 0.00 | 0.00 | 0.00 | 86 | 1015.7 |
| 20260902125327 | 23 | 10 | 0.0 | 1.6 | 0.00 | 0.00 | 0.00 | 86 | 1016.0 |
| 20260902124836 | 23 | 295 | 0.0 | 3.2 | 0.00 | 0.00 | 0.00 | 86 | 1015.9 |
| 20260902124333 | 23 | 15 | 0.0 | 3.2 | 0.00 | 0.00 | 0.00 | 86 | 1015.8 |
| 20260902123822 | 23 | 322 | 0.0 | 1.6 | 0.00 | 0.00 | 0.00 | 86 | 1015.9 |
| 20260902123316 | 22 | 319 | 1.6 | 1.6 | 0.00 | 0.00 | 0.00 | 86 | 1015.8 |
| 20260902122806 | 22 | 309 | 0.0 | 1.6 | 0.00 | 0.00 | 0.00 | 86 | 1015.9 |
| 20260902122258 | 22 | 62 | 0.0 | 1.6 | 0.00 | 0.00 | 0.00 | 86 | 1015.7 |
| 20260902121745 | 22 | 44 | 0.0 | 1.6 | 0.00 | 0.00 | 0.00 | 86 | 1015.8 |
| 20260902121249 | 22 | 297 | 0.0 | 1.6 | 0.00 | 0.00 | 0.00 | 85 | 1015.7 |
| 20260902120745 | 22 | 297 | 0.0 | 0.0 | 0.00 | 0.00 | 0.00 | 86 | 1015.9 |
| 20260902120517 | 22 | 315 | 0.0 | 0.0 | 0.00 | 0.00 | 0.00 | 85 | 1015.9 |
| 20260902115744 | 22 | 129 | 0.0 | 0.0 | 0.00 | 0.00 | 0.00 | 85 | 1015.9 |
| 20260902115254 | 22 | 129 | 0.0 | 0.0 | 0.00 | 0.00 | 0.00 | 85 | 1015.9 |
| 20260902114745 | 22 | 129 | 0.0 | 0.0 | 0.00 | 0.00 | 0.00 | 85 | 1015.7 |
| 20260902114246 | 22 | 73 | 0.0 | 1.6 | 0.00 | 0.00 | 0.00 | 85 | 1015.7 |
| 20260902113745 | 22 | 73 | 0.0 | 1.6 | 0.00 | 0.00 | 0.00 | 85 | 1015.9 |
| 20260902113247 | 22 | 135 | 0.0 | 0.0 | 0.00 | 0.00 | 0.00 | 85 | 1015.5 |
| 20260902112743 | 22 | 135 | 0.0 | 0.0 | 0.00 | 0.00 | 0.00 | 85 | 1015.9 |
| 20260902112243 | 22 | 135 | 0.0 | 0.0 | 0.00 | 0.00 | 0.00 | 85 | 1015.8 |
| 20260902111604 | 22 | 135 | 0.0 | 0.0 | 0.00 | 0.08 | 0.00 | 85 | 1016.1 |
| 20260902111113 | 22 | 135 | 0.0 | 0.0 | 0.00 | 0.08 | 0.00 | 85 | 1015.9 |
| 20260902110614 | 22 | 135 | 0.0 | 0.0 | 0.00 | 0.08 | 0.00 | 85 | 1015.9 |
| 20260902110121 | 22 | 135 | 0.0 | 0.0 | 0.00 | 0.08 | 0.00 | 85 | 1015.8 |
| 20260902105606 | 22 | 135 | 0.0 | 0.0 | 0.00 | 0.08 | 0.00 | 85 | 1016.0 |
| 20260902105108 | 22 | 135 | 0.0 | 0.0 | 0.00 | 0.08 | 0.00 | 85 | 1015.8 |
| 20260902104605 | 22 | 304 | 0.0 | 0.0 | 0.00 | 0.08 | 0.00 | 85 | 1015.9 |
| 20260902104118 | 22 | 304 | 0.0 | 0.0 | 0.00 | 0.08 | 0.00 | 85 | 1015.8 |
| 20260902103605 | 22 | 304 | 0.0 | 0.0 | 0.00 | 0.08 | 0.00 | 85 | 1015.8 |
| 20260902103327 | 22 | 304 | 0.0 | 0.0 | 0.00 | 0.08 | 0.00 | 85 | 1015.9 |
| 20260902102603 | 22 | 304 | 0.0 | 1.6 | 0.00 | 0.08 | 0.00 | 85 | 1015.8 |
| 20260902102105 | 22 | 309 | 0.0 | 1.6 | 0.00 | 0.08 | 0.00 | 85 | 1015.7 |
| 20260902101603 | 22 | 229 | 0.0 | 0.0 | 0.00 | 0.08 | 0.00 | 85 | 1015.8 |
| 20260902101548 | 22 | 315 | 0.0 | 0.0 | 0.00 | 0.08 | 0.00 | 85 | 1015.9 |
| 20260902100830 | 22 | 322 | 0.0 | 0.0 | 0.00 | 0.08 | 0.00 | 85 | 1015.7 |
| 20260902100109 | 22 | 322 | 0.0 | 0.0 | 0.00 | 0.08 | 0.00 | 85 | 1015.9 |
| 20260902095602 | 22 | 322 | 0.0 | 0.0 | 0.00 | 0.08 | 0.00 | 85 | 1015.9 |
| 20260902095103 | 23 | 37 | 0.0 | 0.0 | 0.00 | 0.08 | 0.00 | 85 | 1015.9 |
| 20260902094601 | 23 | 37 | 0.0 | 0.0 | 0.00 | 0.08 | 0.00 | 85 | 1015.8 |
| 20260902094102 | 23 | 44 | 0.0 | 0.0 | 0.00 | 0.08 | 0.00 | 85 | 1015.8 |
| 20260902093559 | 23 | 22 | 0.0 | 1.6 | 0.00 | 0.08 | 0.00 | 85 | 1015.8 |
| 20260902093103 | 23 | 37 | 0.0 | 1.6 | 0.00 | 0.08 | 0.00 | 85 | 1015.8 |
| 20260902092559 | 23 | 315 | 0.0 | 0.0 | 0.00 | 0.08 | 0.00 | 85 | 1015.7 |
| 20260902092101 | 23 | 309 | 0.0 | 1.6 | 0.00 | 0.08 | 0.00 | 85 | 1015.4 |
| 20260902091559 | 23 | 224 | 0.0 | 1.6 | 0.00 | 0.08 | 0.00 | 85 | 1015.6 |
| 20260902091100 | 23 | 326 | 0.0 | 0.0 | 0.00 | 0.08 | 0.00 | 85 | 1015.6 |
| 20260902090558 | 23 | 44 | 0.0 | 0.0 | 0.00 | 0.08 | 0.00 | 85 | 1015.2 |
| 20260902090121 | 23 | 44 | 0.0 | 0.0 | 0.00 | 0.08 | 0.00 | 85 | 1015.4 |
| 20260902085558 | 23 | 44 | 0.0 | 0.0 | 0.00 | 0.08 | 0.00 | 85 | 1015.2 |
| 20260902085100 | 23 | 44 | 0.0 | 0.0 | 0.00 | 0.08 | 0.00 | 85 | 1015.0 |
| 20260902084557 | 23 | 44 | 0.0 | 0.0 | 0.00 | 0.08 | 0.00 | 85 | 1015.4 |
| 20260902084331 | 23 | 44 | 0.0 | 0.0 | 0.00 | 0.08 | 0.00 | 85 | 1015.2 |
| 20260902083556 | 23 | 44 | 0.0 | 0.0 | 0.00 | 0.08 | 0.00 | 85 | 1015.4 |
| 20260902083109 | 23 | 44 | 0.0 | 0.0 | 0.00 | 0.08 | 0.00 | 85 | 1015.2 |
| 20260902082558 | 23 | 44 | 0.0 | 0.0 | 0.00 | 0.08 | 0.00 | 85 | 1015.3 |
| 20260902082323 | 23 | 315 | 0.0 | 0.0 | 0.00 | 0.08 | 0.00 | 85 | 1015.3 |
| 20260902081556 | 23 | 44 | 0.0 | 1.6 | 0.00 | 0.08 | 0.00 | 85 | 1015.1 |
| 20260902081056 | 23 | 50 | 0.0 | 1.6 | 0.00 | 0.08 | 0.00 | 85 | 1015.1 |
| 20260902080558 | 23 | 315 | 0.0 | 1.6 | 0.00 | 0.08 | 0.00 | 85 | 1015.0 |
| 20260902080329 | 23 | 309 | 0.0 | 1.6 | 0.00 | 0.08 | 0.00 | 85 | 1015.4 |
| 20260902075558 | 23 | 44 | 0.0 | 1.6 | 0.00 | 0.08 | 0.00 | 84 | 1015.0 |
| 20260902075056 | 23 | 44 | 0.0 | 0.0 | 0.00 | 0.08 | 0.00 | 84 | 1015.7 |
| 20260902074554 | 23 | 315 | 0.0 | 0.0 | 0.00 | 0.08 | 0.00 | 84 | 1015.1 |
| 20260902074055 | 22 | 129 | 0.0 | 0.0 | 0.00 | 0.08 | 0.00 | 84 | 1015.3 |
| 20260902073554 | 22 | 44 | 0.0 | 0.0 | 0.00 | 0.08 | 0.00 | 84 | 1015.2 |
| 20260902073103 | 22 | 309 | 0.0 | 0.0 | 0.00 | 0.08 | 0.00 | 84 | 1015.0 |
| 20260902072553 | 22 | 44 | 0.0 | 0.0 | 0.00 | 0.08 | 0.00 | 83 | 1015.0 |
| 20260902072054 | 22 | 44 | 0.0 | 0.0 | 0.00 | 0.08 | 0.00 | 83 | 1015.6 |
| 20260902071552 | 22 | 44 | 0.0 | 0.0 | 0.00 | 0.08 | 0.00 | 83 | 1015.2 |
| 20260902071053 | 22 | 44 | 0.0 | 0.0 | 0.00 | 0.08 | 0.00 | 83 | 1015.1 |
| 20260902070551 | 22 | 44 | 0.0 | 0.0 | 0.00 | 0.08 | 0.00 | 83 | 1015.3 |
| 20260902070333 | 22 | 44 | 0.0 | 0.0 | 0.00 | 0.08 | 0.00 | 83 | 1015.0 |
| 20260902065551 | 22 | 44 | 0.0 | 0.0 | 0.00 | 0.08 | 0.00 | 83 | 1014.9 |
| 20260902065051 | 22 | 44 | 0.0 | 0.0 | 0.00 | 0.08 | 0.00 | 83 | 1015.0 |
| 20260902064817 | 22 | 44 | 0.0 | 0.0 | 0.00 | 0.08 | 0.00 | 83 | 1014.8 |
| 20260902064052 | 22 | 44 | 0.0 | 0.0 | 0.00 | 0.08 | 0.00 | 83 | 1015.3 |
| 20260902063815 | 22 | 44 | 0.0 | 0.0 | 0.00 | 0.08 | 0.00 | 82 | 1015.1 |
| 20260902063315 | 22 | 44 | 0.0 | 0.0 | 0.00 | 0.08 | 0.00 | 82 | 1015.0 |
| 20260902062821 | 22 | 44 | 0.0 | 0.0 | 0.00 | 0.08 | 0.00 | 82 | 1015.1 |
| 20260902062050 | 22 | 44 | 0.0 | 0.0 | 0.00 | 0.08 | 0.00 | 82 | 1015.2 |
| 20260902061809 | 22 | 44 | 0.0 | 0.0 | 0.00 | 0.08 | 0.00 | 82 | 1015.1 |
| 20260902061050 | 22 | 44 | 0.0 | 0.0 | 0.00 | 0.08 | 0.00 | 82 | 1015.5 |
| 20260902060548 | 22 | 44 | 0.0 | 0.0 | 0.00 | 0.08 | 0.00 | 82 | 1015.3 |
| 20260902055553 | 22 | 44 | 0.0 | 0.0 | 0.00 | 0.08 | 0.00 | 82 | 1015.4 |
| 20260902055049 | 22 | 44 | 0.0 | 0.0 | 0.00 | 0.08 | 0.00 | 82 | 1015.4 |
| 20260902054546 | 22 | 44 | 0.0 | 0.0 | 0.00 | 0.08 | 0.00 | 82 | 1015.4 |
| 20260902054048 | 22 | 44 | 0.0 | 0.0 | 0.00 | 0.08 | 0.00 | 82 | 1015.6 |
| 20260902053546 | 22 | 44 | 0.0 | 0.0 | 0.00 | 0.08 | 0.00 | 82 | 1015.6 |
| 20260902053047 | 22 | 315 | 0.0 | 0.0 | 0.00 | 0.08 | 0.00 | 82 | 1015.5 |
| 20260902052804 | 22 | 315 | 0.0 | 0.0 | 0.00 | 0.08 | 0.00 | 82 | 1015.4 |
| 20260902052055 | 22 | 315 | 0.0 | 0.0 | 0.00 | 0.08 | 0.00 | 81 | 1015.3 |
| 20260902051544 | 22 | 315 | 0.0 | 0.0 | 0.00 | 0.08 | 0.00 | 81 | 1015.5 |
| 20260902051537 | 22 | 315 | 0.0 | 0.0 | 0.00 | 0.08 | 0.00 | 81 | 1015.3 |
| 20260902050545 | 22 | 44 | 0.0 | 0.0 | 0.00 | 0.08 | 0.00 | 81 | 1015.6 |
| 20260902050045 | 22 | 44 | 0.0 | 0.0 | 0.00 | 0.08 | 0.00 | 81 | 1015.4 |
| 20260902045809 | 22 | 44 | 0.0 | 0.0 | 0.00 | 0.08 | 0.00 | 81 | 1015.4 |
| 20260902045054 | 22 | 44 | 0.0 | 0.0 | 0.00 | 0.08 | 0.00 | 81 | 1015.5 |
| 20260902044544 | 22 | 44 | 0.0 | 0.0 | 0.00 | 0.08 | 0.00 | 81 | 1015.3 |
| 20260902044045 | 22 | 44 | 0.0 | 0.0 | 0.00 | 0.08 | 0.00 | 81 | 1015.4 |